| time (UTC) | temp F | wind direction | speed knots | gust knots | rain 1hr in | rain 24hr in | rain mn in | humidity % | barometer mb |
| 20260902201558 | 82 | 176 | 0.9 | 1.7 | 0.00 | 0.00 | 0.00 | 66 | 1019.2 |
| 20260902200054 | 83 | 175 | 0.0 | 0.9 | 0.00 | 0.00 | 0.00 | 66 | 1018.9 |
| 20260902194553 | 83 | 0 | 0.0 | 1.7 | 0.00 | 0.00 | 0.00 | 66 | 1018.6 |
| 20260902193104 | 84 | 0 | 0.9 | 1.7 | 0.00 | 0.00 | 0.00 | 66 | 1018.4 |
| 20260902191559 | 85 | 0 | 0.0 | 1.7 | 0.00 | 0.00 | 0.00 | 67 | 1018.4 |
| 20260902190059 | 86 | 176 | 0.0 | 0.9 | 0.00 | 0.00 | 0.00 | 67 | 1018.2 |
| 20260902184552 | 87 | 176 | 0.0 | 1.7 | 0.00 | 0.00 | 0.00 | 67 | 1018.1 |
| 20260902183102 | 88 | 176 | 0.9 | 2.6 | 0.00 | 0.00 | 0.00 | 67 | 1018.2 |
| 20260902181601 | 89 | 176 | 0.9 | 3.5 | 0.00 | 0.00 | 0.00 | 67 | 1018.5 |
| 20260902180105 | 89 | 176 | 0.9 | 3.5 | 0.00 | 0.00 | 0.00 | 68 | 1018.5 |
| 20260902174603 | 89 | 176 | 2.6 | 6.1 | 0.00 | 0.00 | 0.00 | 68 | 1018.6 |
| 20260902173053 | 89 | 176 | 3.5 | 6.1 | 0.00 | 0.00 | 0.00 | 68 | 1018.6 |
| 20260902171607 | 90 | 176 | 1.7 | 7.8 | 0.00 | 0.00 | 0.00 | 68 | 1018.6 |
| 20260902170058 | 90 | 176 | 2.6 | 5.2 | 0.00 | 0.00 | 0.00 | 68 | 1018.4 |
| 20260902164558 | 90 | 176 | 3.5 | 6.1 | 0.00 | 0.00 | 0.00 | 68 | 1018.4 |
| 20260902163051 | 89 | 176 | 2.6 | 6.1 | 0.00 | 0.00 | 0.00 | 68 | 1018.5 |
| 20260902161613 | 87 | 176 | 4.3 | 9.6 | 0.00 | 0.00 | 0.00 | 67 | 1018.6 |
| 20260902160055 | 88 | 184 | 5.2 | 12.2 | 0.00 | 0.00 | 0.00 | 68 | 1018.6 |
| 20260902154555 | 89 | 188 | 1.7 | 8.7 | 0.00 | 0.00 | 0.00 | 68 | 1018.3 |
| 20260902153048 | 88 | 180 | 5.2 | 10.4 | 0.00 | 0.00 | 0.00 | 68 | 1018.6 |
| 20260902151556 | 90 | 181 | 4.3 | 9.6 | 0.00 | 0.00 | 0.00 | 68 | 1018.8 |
| 20260902150055 | 92 | 181 | 5.2 | 9.6 | 0.00 | 0.00 | 0.00 | 68 | 1018.9 |
| 20260902144550 | 93 | 181 | 0.9 | 4.3 | 0.00 | 0.00 | 0.00 | 68 | 1018.9 |
| 20260902143052 | 91 | 181 | 1.7 | 6.1 | 0.00 | 0.00 | 0.00 | 68 | 1019.0 |
| 20260902141554 | 88 | 181 | 4.3 | 8.7 | 0.00 | 0.00 | 0.00 | 67 | 1019.4 |
| 20260902140053 | 88 | 181 | 4.3 | 8.7 | 0.00 | 0.00 | 0.00 | 67 | 1019.6 |
| 20260902134551 | 88 | 181 | 6.1 | 9.6 | 0.00 | 0.00 | 0.00 | 67 | 1020.0 |
| 20260902133100 | 89 | 182 | 4.3 | 8.7 | 0.00 | 0.00 | 0.00 | 67 | 1019.8 |
| 20260902131558 | 87 | 182 | 5.2 | 11.3 | 0.00 | 0.00 | 0.00 | 67 | 1019.9 |
| 20260902130056 | 89 | 182 | 5.2 | 8.7 | 0.00 | 0.00 | 0.00 | 67 | 1020.1 |
| 20260902124550 | 89 | 183 | 2.6 | 4.3 | 0.00 | 0.00 | 0.00 | 67 | 1020.0 |
| 20260902123101 | 89 | 183 | 5.2 | 8.7 | 0.00 | 0.00 | 0.00 | 67 | 1020.3 |
| 20260902121607 | 88 | 183 | 2.6 | 6.1 | 0.00 | 0.00 | 0.00 | 67 | 1020.4 |
| 20260902114608 | 86 | 229 | 5.2 | 9.6 | 0.00 | 0.00 | 0.00 | 67 | 1020.6 |
| 20260902113101 | 86 | 231 | 3.5 | 7.0 | 0.00 | 0.00 | 0.00 | 67 | 1020.6 |
| 20260902111602 | 86 | 231 | 3.5 | 6.1 | 0.00 | 0.00 | 0.00 | 66 | 1020.7 |
| 20260902110059 | 85 | 231 | 3.5 | 7.0 | 0.00 | 0.00 | 0.00 | 66 | 1020.6 |
| 20260902104603 | 85 | 231 | 1.7 | 7.0 | 0.00 | 0.00 | 0.00 | 66 | 1020.8 |
| 20260902103118 | 85 | 251 | 2.6 | 7.0 | 0.00 | 0.00 | 0.00 | 66 | 1020.8 |
| 20260902101555 | 85 | 251 | 1.7 | 7.0 | 0.00 | 0.00 | 0.00 | 66 | 1020.8 |
| 20260902100054 | 83 | 251 | 2.6 | 4.3 | 0.00 | 0.00 | 0.00 | 66 | 1020.6 |
| 20260902094551 | 83 | 251 | 0.0 | 3.5 | 0.00 | 0.00 | 0.00 | 66 | 1020.7 |
| 20260902093108 | 83 | 251 | 0.0 | 1.7 | 0.00 | 0.00 | 0.00 | 66 | 1020.6 |
| 20260902091555 | 81 | 261 | 0.9 | 3.5 | 0.00 | 0.00 | 0.00 | 65 | 1020.6 |
| 20260902084556 | 80 | 0 | 0.9 | 5.2 | 0.00 | 0.00 | 0.00 | 65 | 1020.4 |
| 20260902083052 | 79 | 261 | 3.5 | 7.8 | 0.00 | 0.00 | 0.00 | 65 | 1020.3 |
| 20260902081559 | 79 | 120 | 2.6 | 7.0 | 0.00 | 0.00 | 0.00 | 65 | 1020.3 |
| 20260902080059 | 78 | 120 | 3.5 | 5.2 | 0.00 | 0.00 | 0.00 | 65 | 1020.3 |
| 20260902074611 | 77 | 120 | 1.7 | 5.2 | 0.00 | 0.00 | 0.00 | 64 | 1020.5 |
| 20260902073053 | 75 | 120 | 1.7 | 4.3 | 0.00 | 0.00 | 0.00 | 64 | 1020.2 |
| 20260902071556 | 74 | 120 | 2.6 | 6.1 | 0.00 | 0.00 | 0.00 | 64 | 1020.2 |
| 20260902064555 | 72 | 120 | 4.3 | 7.0 | 0.00 | 0.00 | 0.00 | 64 | 1019.9 |
| 20260902063055 | 72 | 120 | 1.7 | 4.3 | 0.00 | 0.00 | 0.00 | 63 | 1020.0 |
| 20260902061558 | 71 | 120 | 2.6 | 4.3 | 0.00 | 0.00 | 0.00 | 63 | 1019.7 |
| 20260902060104 | 71 | 120 | 1.7 | 5.2 | 0.00 | 0.00 | 0.00 | 63 | 1019.6 |
| 20260902054556 | 71 | 120 | 1.7 | 2.6 | 0.00 | 0.00 | 0.00 | 63 | 1019.5 |
| 20260902053101 | 72 | 120 | 1.7 | 3.5 | 0.00 | 0.00 | 0.00 | 63 | 1019.5 |
| 20260902051554 | 72 | 120 | 2.6 | 4.3 | 0.00 | 0.00 | 0.00 | 63 | 1019.2 |
| 20260902050059 | 73 | 120 | 0.9 | 3.5 | 0.00 | 0.00 | 0.00 | 63 | 1019.1 |
| 20260902044557 | 73 | 120 | 1.7 | 5.2 | 0.00 | 0.00 | 0.00 | 63 | 1019.1 |
| 20260902043055 | 73 | 120 | 2.6 | 6.1 | 0.00 | 0.00 | 0.00 | 63 | 1018.9 |
| 20260902041558 | 73 | 120 | 2.6 | 7.0 | 0.00 | 0.00 | 0.00 | 63 | 1018.9 |
| 20260902034605 | 73 | 120 | 0.9 | 6.1 | 0.00 | 0.00 | 0.00 | 63 | 1019.1 |
| 20260902033102 | 74 | 120 | 1.7 | 5.2 | 0.00 | 0.00 | 0.00 | 63 | 1019.2 |
| 20260902031602 | 74 | 120 | 5.2 | 9.6 | 0.00 | 0.00 | 0.00 | 63 | 1019.1 |
| 20260902030056 | 74 | 121 | 5.2 | 9.6 | 0.00 | 0.00 | 0.00 | 63 | 1019.2 |
| 20260902024555 | 74 | 122 | 5.2 | 9.6 | 0.00 | 0.00 | 0.00 | 63 | 1019.1 |
| 20260902023052 | 74 | 122 | 4.3 | 7.8 | 0.00 | 0.00 | 0.00 | 63 | 1019.1 |
| 20260902021546 | 74 | 122 | 5.2 | 9.6 | 0.00 | 0.00 | 0.00 | 63 | 1019.1 |
| 20260902020101 | 74 | 124 | 7.0 | 11.3 | 0.00 | 0.00 | 0.00 | 63 | 1019.3 |
| 20260902014556 | 74 | 135 | 4.3 | 7.0 | 0.00 | 0.00 | 0.00 | 63 | 1019.3 |
| 20260902013052 | 74 | 135 | 5.2 | 7.8 | 0.00 | 0.00 | 0.00 | 63 | 1019.4 |
| 20260902011559 | 74 | 136 | 5.2 | 10.4 | 0.00 | 0.00 | 0.00 | 63 | 1019.7 |
| 20260902010057 | 74 | 139 | 4.3 | 7.8 | 0.00 | 0.00 | 0.00 | 63 | 1019.5 |
| 20260902004557 | 74 | 139 | 4.3 | 7.8 | 0.00 | 0.00 | 0.00 | 63 | 1019.8 |
| 20260902003104 | 74 | 141 | 2.6 | 8.7 | 0.00 | 0.00 | 0.00 | 63 | 1019.9 |
| 20260902001558 | 74 | 141 | 4.3 | 6.1 | 0.00 | 0.00 | 0.00 | 63 | 1020.1 |
| 20260902000051 | 74 | 142 | 4.3 | 6.1 | 0.00 | 0.00 | 0.00 | 63 | 1020.2 |
| 20260901234610 | 74 | 142 | 3.5 | 6.1 | 0.00 | 0.00 | 0.00 | 63 | 1020.3 |
| 20260901233101 | 75 | 142 | 2.6 | 5.2 | 0.00 | 0.00 | 0.00 | 63 | 1020.2 |
| 20260901231558 | 75 | 142 | 3.5 | 6.1 | 0.00 | 0.00 | 0.00 | 63 | 1020.2 |
| 20260901230056 | 75 | 142 | 3.5 | 6.1 | 0.00 | 0.00 | 0.00 | 63 | 1020.0 |
| 20260901224549 | 74 | 142 | 1.7 | 3.5 | 0.00 | 0.00 | 0.00 | 63 | 1020.1 |
| 20260901223058 | 73 | 0 | 0.0 | 0.0 | 0.00 | 0.00 | 0.00 | 63 | 1020.3 |
| 20260901221557 | 74 | 0 | 0.0 | 0.9 | 0.00 | 0.00 | 0.00 | 63 | 1020.4 |
| 20260901220114 | 75 | 0 | 0.0 | 0.0 | 0.00 | 0.00 | 0.00 | 64 | 1020.3 |
| 20260901214601 | 76 | 0 | 0.0 | 0.0 | 0.00 | 0.00 | 0.00 | 64 | 1020.5 |
| 20260901213057 | 77 | 0 | 0.0 | 0.9 | 0.00 | 0.00 | 0.00 | 64 | 1020.5 |
| 20260901211557 | 78 | 0 | 0.0 | 0.9 | 0.00 | 0.00 | 0.00 | 64 | 1020.4 |
| 20260901210055 | 77 | 0 | 0.9 | 5.2 | 0.00 | 0.00 | 0.00 | 64 | 1020.3 |
| 20260901204553 | 76 | 142 | 0.0 | 0.9 | 0.00 | 0.00 | 0.00 | 64 | 1019.9 |
| 20260901203103 | 77 | 0 | 0.0 | 0.0 | 0.00 | 0.00 | 0.00 | 64 | 1019.7 |